Augusta, ME

5:23 AM EST on January 20, 2018 (GMT -0500)
Augusta State

Weather History for KAUG - November, 2012

Change the Weather History Date:

Wednesday, November 28, 2012

  Actual Average Record
Temperature  
Mean Temperature 26 °F 33 °F  
Max Temperature 28 °F 40 °F 62 °F (1990)
Min Temperature 21 °F 26 °F 4 °F (1951)
Degree Days  
Heating Degree Days 40 32  
Month to date heating degree days 748  
Since 1 July heating degree days 1483  
Cooling Degree Days 0 0  
Month to date cooling degree days 0  
Year to date cooling degree days 388  
Moisture  
Dew Point 18 °F    
Average Humidity 72    
Maximum Humidity 85    
Minimum Humidity 61    
Precipitation  
Precipitation 0.00 in 0.13 in 1.56 in (2004)
Month to date precipitation 4.10  
Year to date precipitation 38.38  
Sea Level Pressure  
Sea Level Pressure 30.19 in    
Wind  
Wind Speed 6 mph (North)    
Max Wind Speed 9 mph    
Max Gust Speed -    
Visibility 10 miles    
Events      
T = Trace of Precipitation, MM = Missing Value Source: NWS Daily Summary

Daily Weather History Graph

Daily Weather History Graph

Search for Another Location

Airport or City:

Trip Planner

Search our weather history database for the weather conditions in past years. The results will help you decide how hot, cold, wet, or windy it might be!

Date:

Astronomy

Nov. 28, 2012 Rise Set
Actual Time 6:52 AM EST 4:02 PM EST
Civil Twilight 6:19 AM EST 4:34 PM EST
Nautical Twilight 5:43 AM EST 5:10 PM EST
Astronomical Twilight 5:08 AM EST 5:45 PM EST
Moon 4:14 PM EST (11/28) 6:46 AM EST (11/28)
Length of Visible Light 10h 15m
Length of Day
9h 10m
Full, 100% of the Moon is Illuminated
Nov 28
Full
Dec 6
Last Quarter
Dec 13
New
Dec 20
First Quarter
Dec 28
Full

Hourly Weather History & Observations

Time (EST) Temp. Windchill Dew Point Humidity Pressure Visibility Wind Dir Wind Speed Gust Speed Precip Events Conditions
12:53 AM 23.0 °F 14.7 °F 18.0 °F 81% 30.27 in 10.0 mi NNW 6.9 mph - N/A   Overcast
1:53 AM 23.0 °F 18.4 °F 19.0 °F 85% 30.27 in 10.0 mi NNW 3.5 mph - N/A   Overcast
2:53 AM 24.1 °F 16.0 °F 19.0 °F 81% 30.25 in 10.0 mi NNW 6.9 mph - N/A   Overcast
3:53 AM 25.0 °F 18.1 °F 18.0 °F 75% 30.25 in 10.0 mi North 5.8 mph - N/A   Overcast
4:53 AM 25.0 °F 16.3 °F 16.0 °F 69% 30.25 in 10.0 mi North 8.1 mph - N/A   Overcast
5:53 AM 25.0 °F 16.3 °F 16.0 °F 69% 30.24 in 10.0 mi North 8.1 mph - N/A   Overcast
6:53 AM 25.0 °F 16.3 °F 16.0 °F 69% 30.25 in 10.0 mi North 8.1 mph - N/A   Overcast
7:53 AM 26.1 °F 18.4 °F 17.1 °F 69% 30.25 in 10.0 mi NNE 6.9 mph - N/A   Overcast
8:53 AM 26.1 °F 17.6 °F 17.1 °F 69% 30.24 in 10.0 mi NNE 8.1 mph - N/A   Overcast
9:53 AM 26.1 °F 17.6 °F 17.1 °F 69% 30.23 in 10.0 mi NNE 8.1 mph - N/A   Overcast
10:53 AM 27.0 °F 18.0 °F 17.1 °F 66% 30.20 in 10.0 mi North 9.2 mph - N/A   Overcast
11:53 AM 28.0 °F 20.0 °F 17.1 °F 63% 30.17 in 10.0 mi North 8.1 mph - N/A   Overcast
12:53 PM 28.9 °F 20.4 °F 17.1 °F 61% 30.16 in 10.0 mi North 9.2 mph - N/A   Overcast
1:53 PM 28.9 °F 22.8 °F 17.1 °F 61% 30.14 in 10.0 mi NE 5.8 mph - N/A   Overcast
2:53 PM 28.9 °F 23.9 °F 17.1 °F 61% 30.15 in 9.0 mi NE 4.6 mph - 0.00 in   Overcast
3:53 PM 28.0 °F 20.8 °F 18.0 °F 66% 30.14 in 10.0 mi NE 6.9 mph - 0.00 in   Overcast
4:53 PM 28.0 °F 24.2 °F 19.0 °F 69% 30.13 in 10.0 mi NNE 3.5 mph - N/A   Overcast
5:53 PM 26.1 °F - 18.0 °F 71% 30.14 in 10.0 mi Calm Calm - N/A   Mostly Cloudy
6:53 PM 26.1 °F 21.9 °F 18.0 °F 71% 30.14 in 10.0 mi WNW 3.5 mph - N/A   Scattered Clouds
7:53 PM 25.0 °F 20.7 °F 18.0 °F 75% 30.14 in 10.0 mi WNW 3.5 mph - N/A   Mostly Cloudy
8:53 PM 25.0 °F - 18.0 °F 75% 30.13 in 10.0 mi Calm Calm - N/A   Clear
9:53 PM 23.0 °F - 18.0 °F 81% 30.12 in 10.0 mi Calm Calm - N/A   Clear
10:53 PM 23.0 °F 18.4 °F 18.0 °F 81% 30.11 in 10.0 mi SSW 3.5 mph - N/A   Clear
11:53 PM 21.9 °F 17.2 °F 18.0 °F 85% 30.09 in 10.0 mi SSE 3.5 mph - N/A   Clear